Location: Bartlow
(52.0833°N, 0.3167°E)
Time: 11:47:12
(UTC+00:00)

GP-B - Pass Details

Date: 26 September 2023
Orbit: 626 x 631 km, 89.8° (Epoch: 29 November)

Event Time Altitude Azimuth Distance (km) Brightness Sun altitude
Rises 04:05:12 0° 170° (S) 2,908 6.4 -16.7°
Reaches altitude 10° 04:07:24 10° 168° (SSE) 2,006 5.6 -16.4°
Maximum altitude 04:11:47 69° 85° (E) 678 3.4 -15.8°
Drops below altitude 10° 04:16:13 10° 3° (N) 2,026 6.0 -15.1°
Sets 04:18:27 0° 1° (N) 2,940 6.8 -14.8°
